Weather History for Westminster, MD

Change the Weather History Date:

Saturday, December 7, 2013

  Actual Average (KTHV) Record (KTHV)
Temperature  
Mean Temperature 32 °F -  
Max Temperature 37 °F 0 °F 73 °F (1998)
Min Temperature 28 °F - -9 °F (2002)
Degree Days  
Heating Degree Days 32    
Moisture  
Dew Point 27 °F    
Average Humidity 77    
Maximum Humidity 100    
Minimum Humidity 64    
Precipitation  
Precipitation 0.00 in - - ()
Sea Level Pressure  
Sea Level Pressure 30.36 in    
Wind  
Wind Speed 7 mph (NNW)    
Max Wind Speed 13 mph    
Max Gust Speed 20 mph    
Visibility 9 miles    
Events Rain    
Averages and records for this station are not official NWS values.
T = Trace of Precipitation, MM = Missing Value Source: NWS Daily Summary

Daily Weather History Graph

Daily Weather History Graph

Search for Another Location

Airport:

Trip Planner

Search our weather history database for the weather conditions in past years. The results will help you decide how hot, cold, wet, or windy it might be!

Date:

Astronomy

Dec. 07, 2013 Rise Set
Actual Time 7:15 AM EST 4:43 PM EST
Civil Twilight 6:45 AM EST 5:13 PM EST
Nautical Twilight 6:11 AM EST 5:47 PM EST
Astronomical Twilight 5:39 AM EST 6:20 PM EST
Moon 10:59 AM EST (12/7) 10:22 PM EST (12/7)
Length of Visible Light 10h 28m
Length of Day
9h 28m
Waxing Crescent, 29% of the Moon is Illuminated
Dec 7
Waxing Crescent
Dec 9
First Quarter
Dec 17
Full
Dec 25
Last Quarter
Jan 1
New

Hourly Weather History & Observations

Time (EST) Temp. Windchill Dew Point Humidity Pressure Visibility Wind Dir Wind Speed Gust Speed Precip Events Conditions
12:10 AM 35.6 °F 29.9 °F 33.8 °F 93% 30.13 in 5.0 mi North 6.9 mph - 0.02 in Rain Light Rain
12:30 AM 35.6 °F 31.7 °F 33.8 °F 93% 30.14 in 7.0 mi North 4.6 mph - 0.02 in Rain Light Rain
12:50 AM 33.8 °F 29.6 °F 33.8 °F 100% 30.15 in 10.0 mi North 4.6 mph - N/A   Light Drizzle
1:10 AM 35.6 °F 28.6 °F 33.8 °F 93% 30.16 in 2.0 mi North 9.2 mph - N/A   Heavy Drizzle
1:30 AM 33.8 °F 25.8 °F 33.8 °F 100% 30.17 in 2.5 mi North 10.4 mph - N/A Rain Light Rain
1:50 AM 33.8 °F 25.8 °F 33.8 °F 100% 30.18 in 4.0 mi North 10.4 mph - N/A Rain Light Rain
2:10 AM 33.8 °F 24.8 °F 32.0 °F 93% 30.19 in 4.0 mi North 12.7 mph 19.6 mph N/A   Overcast
2:30 AM 33.8 °F 26.4 °F 32.0 °F 93% 30.19 in 2.5 mi North 9.2 mph 19.6 mph N/A Rain Rain
2:50 AM 33.8 °F 27.0 °F 32.0 °F 93% 30.21 in 4.0 mi North 8.1 mph - N/A Rain Light Rain
3:10 AM 33.8 °F 25.8 °F 32.0 °F 93% 30.21 in 10.0 mi North 10.4 mph 17.3 mph N/A   Overcast
3:30 AM 33.8 °F 27.7 °F 32.0 °F 93% 30.22 in 10.0 mi North 6.9 mph - N/A   Overcast
3:50 AM 33.8 °F 28.6 °F 30.2 °F 87% 30.21 in 10.0 mi North 5.8 mph - N/A   Overcast
4:10 AM 33.8 °F 25.8 °F 30.2 °F 87% 30.22 in 10.0 mi North 10.4 mph - N/A   Overcast
4:30 AM 33.8 °F 27.0 °F 30.2 °F 87% 30.22 in 10.0 mi North 8.1 mph - N/A   Overcast
4:50 AM 33.8 °F 27.7 °F 30.2 °F 87% 30.23 in 10.0 mi North 6.9 mph - N/A   Overcast
5:10 AM 33.8 °F 30.8 °F 30.2 °F 87% 30.25 in 10.0 mi North 3.5 mph - N/A   Overcast
5:30 AM 33.8 °F 29.6 °F 30.2 °F 87% 30.25 in 10.0 mi North 4.6 mph - N/A   Overcast
5:50 AM 33.8 °F 29.6 °F 30.2 °F 87% 30.26 in 10.0 mi NNW 4.6 mph - N/A   Overcast
6:10 AM 33.8 °F 29.6 °F 30.2 °F 87% 30.27 in 10.0 mi NNW 4.6 mph - N/A   Mostly Cloudy
6:30 AM 33.8 °F 30.8 °F 30.2 °F 87% 30.29 in 10.0 mi North 3.5 mph - N/A   Scattered Clouds
6:50 AM 33.8 °F 30.8 °F 30.2 °F 87% 30.29 in 10.0 mi North 3.5 mph - N/A   Clear
7:10 AM 33.8 °F 28.6 °F 30.2 °F 87% 30.30 in 10.0 mi North 5.8 mph - N/A   Scattered Clouds
7:30 AM 33.8 °F - 30.2 °F 87% 30.31 in 10.0 mi Calm Calm - N/A   Mostly Cloudy
7:50 AM 33.8 °F - 30.2 °F 87% 30.32 in 10.0 mi Calm Calm - N/A   Scattered Clouds
8:10 AM 33.8 °F 29.6 °F 30.2 °F 87% 30.33 in 10.0 mi NNW 4.6 mph - N/A   Mostly Cloudy
8:30 AM 33.8 °F 29.6 °F 30.2 °F 87% 30.34 in 10.0 mi NNW 4.6 mph - N/A   Mostly Cloudy
8:50 AM 33.8 °F 29.6 °F 32.0 °F 93% 30.35 in 10.0 mi North 4.6 mph - N/A   Scattered Clouds
9:15 AM 35.6 °F 32.8 °F 32.0 °F 87% 30.35 in 10.0 mi North 3.5 mph - N/A   Overcast
9:35 AM 35.6 °F 28.6 °F 32.0 °F 87% 30.36 in 10.0 mi North 9.2 mph - N/A   Overcast
9:55 AM 35.6 °F 29.9 °F 30.2 °F 81% 30.37 in 10.0 mi NNW 6.9 mph - N/A   Mostly Cloudy
10:15 AM 35.6 °F 29.2 °F 30.2 °F 81% 30.38 in 10.0 mi NNW 8.1 mph - N/A   Scattered Clouds
10:35 AM 35.6 °F 28.6 °F 30.2 °F 81% 30.39 in 10.0 mi NNW 9.2 mph - N/A   Scattered Clouds
10:55 AM 37.4 °F 30.8 °F 30.2 °F 75% 30.39 in 10.0 mi NNW 9.2 mph 19.6 mph N/A   Scattered Clouds
11:15 AM 37.4 °F 30.8 °F 30.2 °F 75% 30.39 in 10.0 mi North 9.2 mph - N/A   Mostly Cloudy
11:35 AM 35.6 °F 30.7 °F 30.2 °F 81% 30.38 in 10.0 mi NNW 5.8 mph - N/A   Overcast
11:55 AM 35.6 °F 28.6 °F 30.2 °F 81% 30.39 in 10.0 mi NW 9.2 mph - N/A   Overcast
12:15 PM 37.4 °F 30.8 °F 30.2 °F 75% 30.38 in 10.0 mi WNW 9.2 mph - N/A   Mostly Cloudy
12:35 PM 37.4 °F 30.3 °F 28.4 °F 70% 30.38 in 10.0 mi NW 10.4 mph - N/A   Mostly Cloudy
12:55 PM 37.4 °F 31.4 °F 28.4 °F 70% 30.38 in 10.0 mi NW 8.1 mph - N/A   Overcast
1:15 PM 37.4 °F 32.1 °F 26.6 °F 65% 30.37 in 10.0 mi NW 6.9 mph - N/A   Overcast
1:35 PM 35.6 °F 28.0 °F 26.6 °F 70% 30.38 in 10.0 mi NW 10.4 mph - N/A   Scattered Clouds
1:55 PM 37.4 °F 30.8 °F 26.6 °F 65% 30.38 in 10.0 mi NNW 9.2 mph - N/A   Clear
2:15 PM 37.4 °F 30.8 °F 26.6 °F 65% 30.38 in 10.0 mi NW 9.2 mph - N/A   Clear
2:35 PM 37.4 °F 29.8 °F 26.6 °F 65% 30.38 in 10.0 mi WNW 11.5 mph - N/A   Scattered Clouds
2:55 PM 37.4 °F 30.3 °F 26.6 °F 65% 30.38 in 10.0 mi West 10.4 mph 16.1 mph N/A   Overcast
3:15 PM 37.4 °F 30.3 °F 26.6 °F 65% 30.39 in 10.0 mi WNW 10.4 mph - N/A   Mostly Cloudy
3:35 PM 37.4 °F 30.8 °F 26.6 °F 65% 30.39 in 10.0 mi WNW 9.2 mph - N/A   Clear
3:55 PM 35.6 °F 28.6 °F 24.8 °F 65% 30.40 in 10.0 mi NW 9.2 mph - N/A   Clear
4:15 PM 35.6 °F 29.9 °F 24.8 °F 65% 30.41 in 10.0 mi WNW 6.9 mph - N/A   Clear
4:35 PM 35.6 °F 30.7 °F 26.6 °F 70% 30.41 in 10.0 mi WNW 5.8 mph - N/A   Clear
4:55 PM 33.8 °F 27.0 °F 23.0 °F 65% 30.42 in 10.0 mi WNW 8.1 mph - N/A   Clear
5:15 PM 33.8 °F 27.0 °F 23.0 °F 65% 30.43 in 10.0 mi WNW 8.1 mph - N/A   Clear
5:35 PM 33.8 °F 27.7 °F 23.0 °F 65% 30.44 in 10.0 mi WNW 6.9 mph - N/A   Clear
5:55 PM 33.8 °F 28.6 °F 23.0 °F 65% 30.45 in 10.0 mi WNW 5.8 mph - N/A   Clear
6:15 PM 32.0 °F 26.4 °F 21.2 °F 64% 30.46 in 10.0 mi WNW 5.8 mph - N/A   Scattered Clouds
6:35 PM 32.0 °F 27.5 °F 23.0 °F 69% 30.46 in 10.0 mi NW 4.6 mph - N/A   Clear
6:55 PM 32.0 °F 26.4 °F 21.2 °F 64% 30.47 in 10.0 mi NW 5.8 mph - N/A   Clear
7:15 PM 32.0 °F 27.5 °F 21.2 °F 64% 30.48 in 10.0 mi NW 4.6 mph - N/A   Clear
7:35 PM 30.2 °F 25.4 °F 21.2 °F 69% 30.49 in 10.0 mi NW 4.6 mph - N/A   Clear
7:55 PM 30.2 °F 22.6 °F 21.2 °F 69% 30.50 in 10.0 mi NW 8.1 mph - N/A   Clear
8:15 PM 30.2 °F 21.3 °F 19.4 °F 64% 30.50 in 10.0 mi NW 10.4 mph - N/A   Clear
8:35 PM 30.2 °F 26.7 °F 19.4 °F 64% 30.49 in 10.0 mi NNW 3.5 mph - N/A   Clear
8:55 PM 30.2 °F 24.3 °F 19.4 °F 64% 30.50 in 10.0 mi NW 5.8 mph - N/A   Scattered Clouds
9:15 PM 30.2 °F 23.4 °F 19.4 °F 64% 30.50 in 10.0 mi NW 6.9 mph - N/A   Clear
9:35 PM 28.4 °F 24.6 °F 19.4 °F 69% 30.51 in 10.0 mi NW 3.5 mph - N/A   Clear
9:55 PM 28.4 °F - 19.4 °F 69% 30.52 in 10.0 mi Calm Calm - N/A   Clear
10:15 PM 28.4 °F - 19.4 °F 69% 30.52 in 10.0 mi Calm Calm - N/A   Clear
10:35 PM 28.4 °F - 19.4 °F 69% 30.52 in 10.0 mi Calm Calm - N/A   Clear
10:55 PM 28.4 °F 24.6 °F 19.4 °F 69% 30.52 in 10.0 mi North 3.5 mph - N/A   Clear
11:15 PM 28.4 °F 23.3 °F 19.4 °F 69% 30.52 in 10.0 mi NNW 4.6 mph - N/A   Clear
11:35 PM 28.4 °F 21.2 °F 19.4 °F 69% 30.52 in 10.0 mi North 6.9 mph - N/A   Scattered Clouds
11:55 PM 28.4 °F 19.7 °F 19.4 °F 69% 30.52 in 10.0 mi North 9.2 mph - N/A   Scattered Clouds